Time,TemperatureF,DewpointF,PressureIn,WindDirection,WindDirectionDegrees,WindSpeedMPH,WindSpeedGustMPH,Humidity,HourlyPrecipIn,Conditions,Clouds,dailyrainin,SoftwareType,DateUTC
2013-03-19 00:05:00,35.6,-99.9,-100.00,WSW,240,11.0,-999.0,-999,0.00,,,-99.99,Home Grown,2013-03-19 00:05:00,
2013-03-19 00:10:00,35.4,-99.9,-100.00,WSW,240,10.0,-999.0,-999,0.00,,,-99.99,Home Grown,2013-03-19 00:10:00,
2013-03-19 00:15:00,35.4,-99.9,-100.00,WSW,240,10.0,-999.0,-999,0.00,,,-99.99,Home Grown,2013-03-19 00:15:00,
2013-03-19 00:20:00,35.2,-99.9,-100.00,WSW,240,11.0,-999.0,-999,0.00,,,-99.99,Home Grown,2013-03-19 00:20:00,
2013-03-19 00:25:00,34.9,-99.9,-100.00,WSW,240,15.0,-999.0,-999,0.00,,,-99.99,Home Grown,2013-03-19 00:25:00,
2013-03-19 00:30:00,34.7,-99.9,-100.00,WSW,240,16.0,-999.0,-999,0.00,,,-99.99,Home Grown,2013-03-19 00:30:00,
2013-03-19 00:35:00,34.5,-99.9,-100.00,WSW,240,14.0,-999.0,-999,0.00,,,-99.99,Home Grown,2013-03-19 00:35:00,
2013-03-19 00:40:00,34.5,-99.9,-100.00,WSW,240,12.0,-999.0,-999,0.00,,,-99.99,Home Grown,2013-03-19 00:40:00,
2013-03-19 00:45:00,34.5,-99.9,-100.00,WSW,240,11.0,-999.0,-999,0.00,,,-99.99,Home Grown,2013-03-19 00:45:00,
2013-03-19 00:50:00,34.5,-99.9,-100.00,WSW,240,12.0,-999.0,-999,0.00,,,-99.99,Home Grown,2013-03-19 00:50:00,
2013-03-19 00:55:00,34.5,-99.9,-100.00,WSW,240,12.0,-999.0,-999,0.00,,,-99.99,Home Grown,2013-03-19 00:55:00,
2013-03-19 01:00:00,34.5,-99.9,-100.00,WSW,240,12.0,-999.0,-999,0.00,,,-99.99,Home Grown,2013-03-19 01:00:00,
2013-03-19 01:05:00,34.5,-99.9,-100.00,WSW,240,11.0,-999.0,-999,0.00,,,-99.99,Home Grown,2013-03-19 01:05:00,
2013-03-19 01:10:00,34.5,-99.9,-100.00,WSW,240,10.0,-999.0,-999,0.00,,,-99.99,Home Grown,2013-03-19 01:10:00,
2013-03-19 01:15:00,34.5,-99.9,-100.00,WSW,240,10.0,-999.0,-999,0.00,,,-99.99,Home Grown,2013-03-19 01:15:00,
2013-03-19 01:20:00,34.5,-99.9,-100.00,WSW,240,11.0,-999.0,-999,0.00,,,-99.99,Home Grown,2013-03-19 01:20:00,
2013-03-19 01:25:00,34.3,-99.9,-100.00,WSW,240,11.0,-999.0,-999,0.00,,,-99.99,Home Grown,2013-03-19 01:25:00,
2013-03-19 01:30:00,34.3,-99.9,-100.00,WSW,240,11.0,-999.0,-999,0.00,,,-99.99,Home Grown,2013-03-19 01:30:00,
2013-03-19 01:35:00,34.3,-99.9,-100.00,WSW,240,12.0,-999.0,-999,0.00,,,-99.99,Home Grown,2013-03-19 01:35:00,
2013-03-19 01:40:00,34.3,-99.9,-100.00,WSW,240,12.0,-999.0,-999,0.00,,,-99.99,Home Grown,2013-03-19 01:40:00,
2013-03-19 01:45:00,34.2,-99.9,-100.00,WSW,240,10.0,-999.0,-999,0.00,,,-99.99,Home Grown,2013-03-19 01:45:00,
2013-03-19 01:50:00,34.2,-99.9,-100.00,WSW,240,11.0,-999.0,-999,0.00,,,-99.99,Home Grown,2013-03-19 01:50:00,
2013-03-19 01:55:00,34.2,-99.9,-100.00,WSW,240,9.0,-999.0,-999,0.00,,,-99.99,Home Grown,2013-03-19 01:55:00,
2013-03-19 02:00:00,34.2,-99.9,-100.00,WSW,240,10.0,-999.0,-999,0.00,,,-99.99,Home Grown,2013-03-19 02:00:00,
2013-03-19 02:05:00,34.2,-99.9,-100.00,WSW,240,11.0,-999.0,-999,0.00,,,-99.99,Home Grown,2013-03-19 02:05:00,
2013-03-19 02:10:00,34.0,-99.9,-100.00,WSW,240,10.0,-999.0,-999,0.00,,,-99.99,Home Grown,2013-03-19 02:10:00,
2013-03-19 02:15:00,34.0,-99.9,-100.00,WSW,240,10.0,-999.0,-999,0.00,,,-99.99,Home Grown,2013-03-19 02:15:00,
2013-03-19 02:20:00,34.0,-99.9,-100.00,WSW,240,10.0,-999.0,-999,0.00,,,-99.99,Home Grown,2013-03-19 02:20:00,
2013-03-19 02:25:00,34.0,-99.9,-100.00,WSW,240,12.0,-999.0,-999,0.00,,,-99.99,Home Grown,2013-03-19 02:25:00,
2013-03-19 02:30:00,34.0,-99.9,-100.00,WSW,240,11.0,-999.0,-999,0.00,,,-99.99,Home Grown,2013-03-19 02:30:00,
2013-03-19 02:35:00,33.8,-99.9,-100.00,WSW,240,10.0,-999.0,-999,0.00,,,-99.99,Home Grown,2013-03-19 02:35:00,
2013-03-19 02:40:00,33.8,-99.9,-100.00,WSW,240,11.0,-999.0,-999,0.00,,,-99.99,Home Grown,2013-03-19 02:40:00,
2013-03-19 02:45:00,33.6,-99.9,-100.00,WSW,240,9.0,-999.0,-999,0.00,,,-99.99,Home Grown,2013-03-19 02:45:00,
2013-03-19 02:50:00,33.6,-99.9,-100.00,WSW,240,10.0,-999.0,-999,0.00,,,-99.99,Home Grown,2013-03-19 02:50:00,
2013-03-19 02:55:00,33.6,-99.9,-100.00,WSW,240,9.0,-999.0,-999,0.00,,,-99.99,Home Grown,2013-03-19 02:55:00,
2013-03-19 03:00:00,33.6,-99.9,-100.00,WSW,240,11.0,-999.0,-999,0.00,,,-99.99,Home Grown,2013-03-19 03:00:00,
2013-03-19 03:05:00,33.6,-99.9,-100.00,WSW,240,10.0,-999.0,-999,0.00,,,-99.99,Home Grown,2013-03-19 03:05:00,
2013-03-19 03:10:00,33.4,-99.9,-100.00,WSW,240,11.0,-999.0,-999,0.00,,,-99.99,Home Grown,2013-03-19 03:10:00,
2013-03-19 03:15:00,33.3,-99.9,-100.00,WSW,240,11.0,-999.0,-999,0.00,,,-99.99,Home Grown,2013-03-19 03:15:00,
2013-03-19 03:20:00,33.1,-99.9,-100.00,WSW,240,11.0,-999.0,-999,0.00,,,-99.99,Home Grown,2013-03-19 03:20:00,
2013-03-19 03:25:00,33.1,-99.9,-100.00,WSW,240,10.0,-999.0,-999,0.00,,,-99.99,Home Grown,2013-03-19 03:25:00,
2013-03-19 03:30:00,33.1,-99.9,-100.00,WSW,240,10.0,-999.0,-999,0.00,,,-99.99,Home Grown,2013-03-19 03:30:00,
2013-03-19 03:35:00,33.1,-99.9,-100.00,WSW,240,10.0,-999.0,-999,0.00,,,-99.99,Home Grown,2013-03-19 03:35:00,
2013-03-19 03:40:00,33.1,-99.9,-100.00,WSW,240,9.0,-999.0,-999,0.00,,,-99.99,Home Grown,2013-03-19 03:40:00,
2013-03-19 03:45:00,33.1,-99.9,-100.00,WSW,240,10.0,-999.0,-999,0.00,,,-99.99,Home Grown,2013-03-19 03:45:00,
2013-03-19 03:50:00,33.1,-99.9,-100.00,WSW,240,10.0,-999.0,-999,0.00,,,-99.99,Home Grown,2013-03-19 03:50:00,
2013-03-19 03:55:00,32.9,-99.9,-100.00,WSW,240,10.0,-999.0,-999,0.00,,,-99.99,Home Grown,2013-03-19 03:55:00,
2013-03-19 04:05:00,32.7,-99.9,-100.00,WSW,240,10.0,-999.0,-999,0.00,,,-99.99,Home Grown,2013-03-19 04:05:00,
2013-03-19 04:10:00,32.7,-99.9,-100.00,WSW,240,10.0,-999.0,-999,0.00,,,-99.99,Home Grown,2013-03-19 04:10:00,
2013-03-19 04:15:00,32.7,-99.9,-100.00,WSW,240,10.0,-999.0,-999,0.00,,,-99.99,Home Grown,2013-03-19 04:15:00,
2013-03-19 04:20:00,32.7,-99.9,-100.00,WSW,240,12.0,-999.0,-999,0.00,,,-99.99,Home Grown,2013-03-19 04:20:00,
2013-03-19 04:25:00,32.7,-99.9,-100.00,WSW,240,11.0,-999.0,-999,0.00,,,-99.99,Home Grown,2013-03-19 04:25:00,
2013-03-19 04:30:00,32.7,-99.9,-100.00,WSW,240,10.0,-999.0,-999,0.00,,,-99.99,Home Grown,2013-03-19 04:30:00,
2013-03-19 04:35:00,32.7,-99.9,-100.00,WSW,240,11.0,-999.0,-999,0.00,,,-99.99,Home Grown,2013-03-19 04:35:00,
2013-03-19 04:45:00,32.4,-99.9,-100.00,WSW,240,10.0,-999.0,-999,0.00,,,-99.99,Home Grown,2013-03-19 04:45:00,
2013-03-19 04:50:00,32.4,-99.9,-100.00,WSW,240,10.0,-999.0,-999,0.00,,,-99.99,Home Grown,2013-03-19 04:50:00,
2013-03-19 04:55:00,32.4,-99.9,-100.00,WSW,240,10.0,-999.0,-999,0.00,,,-99.99,Home Grown,2013-03-19 04:55:00,
2013-03-19 05:00:00,32.4,-99.9,-100.00,WSW,240,11.0,-999.0,-999,0.00,,,-99.99,Home Grown,2013-03-19 05:00:00,
2013-03-19 05:05:00,32.4,-99.9,-100.00,WSW,240,11.0,-999.0,-999,0.00,,,-99.99,Home Grown,2013-03-19 05:05:00,
2013-03-19 05:10:00,32.4,-99.9,-100.00,WSW,240,10.0,-999.0,-999,0.00,,,-99.99,Home Grown,2013-03-19 05:10:00,
2013-03-19 05:15:00,32.4,-99.9,-100.00,WSW,240,11.0,-999.0,-999,0.00,,,-99.99,Home Grown,2013-03-19 05:15:00,
2013-03-19 05:20:00,32.4,-99.9,-100.00,WSW,240,11.0,-999.0,-999,0.00,,,-99.99,Home Grown,2013-03-19 05:20:00,
2013-03-19 05:25:00,32.4,-99.9,-100.00,WSW,240,11.0,-999.0,-999,0.00,,,-99.99,Home Grown,2013-03-19 05:25:00,
2013-03-19 05:30:00,32.4,-99.9,-100.00,WSW,240,10.0,-999.0,-999,0.00,,,-99.99,Home Grown,2013-03-19 05:30:00,
2013-03-19 05:35:00,32.4,-99.9,-100.00,WSW,240,11.0,-999.0,-999,0.00,,,-99.99,Home Grown,2013-03-19 05:35:00,
2013-03-19 05:40:00,32.4,-99.9,-100.00,WSW,240,11.0,-999.0,-999,0.00,,,-99.99,Home Grown,2013-03-19 05:40:00,
2013-03-19 05:45:00,32.2,-99.9,-100.00,WSW,240,10.0,-999.0,-999,0.00,,,-99.99,Home Grown,2013-03-19 05:45:00,
2013-03-19 05:50:00,32.2,-99.9,-100.00,WSW,240,11.0,-999.0,-999,0.00,,,-99.99,Home Grown,2013-03-19 05:50:00,
2013-03-19 05:55:00,32.2,-99.9,-100.00,WSW,240,11.0,-999.0,-999,0.00,,,-99.99,Home Grown,2013-03-19 05:55:00,
2013-03-19 06:00:00,32.4,-99.9,-100.00,WSW,240,11.0,-999.0,-999,0.00,,,-99.99,Home Grown,2013-03-19 06:00:00,
2013-03-19 06:05:00,32.4,-99.9,-100.00,WSW,240,11.0,-999.0,-999,0.00,,,-99.99,Home Grown,2013-03-19 06:05:00,
2013-03-19 06:10:00,32.4,-99.9,-100.00,WSW,240,11.0,-999.0,-999,0.00,,,-99.99,Home Grown,2013-03-19 06:10:00,
2013-03-19 06:15:00,32.4,-99.9,-100.00,WSW,240,11.0,-999.0,-999,0.00,,,-99.99,Home Grown,2013-03-19 06:15:00,
2013-03-19 06:20:00,32.4,-99.9,-100.00,WSW,240,11.0,-999.0,-999,0.00,,,-99.99,Home Grown,2013-03-19 06:20:00,
2013-03-19 06:25:00,32.4,-99.9,-100.00,WSW,240,12.0,-999.0,-999,0.00,,,-99.99,Home Grown,2013-03-19 06:25:00,
2013-03-19 06:30:00,32.4,-99.9,-100.00,WSW,240,11.0,-999.0,-999,0.00,,,-99.99,Home Grown,2013-03-19 06:30:00,
2013-03-19 06:35:00,32.4,-99.9,-100.00,WSW,240,11.0,-999.0,-999,0.00,,,-99.99,Home Grown,2013-03-19 06:35:00,
2013-03-19 06:40:00,32.4,-99.9,-100.00,WSW,240,11.0,-999.0,-999,0.00,,,-99.99,Home Grown,2013-03-19 06:40:00,
2013-03-19 06:45:00,32.4,-99.9,-100.00,WSW,240,11.0,-999.0,-999,0.00,,,-99.99,Home Grown,2013-03-19 06:45:00,
2013-03-19 06:50:00,32.2,-99.9,-100.00,WSW,240,10.0,-999.0,-999,0.00,,,-99.99,Home Grown,2013-03-19 06:50:00,
2013-03-19 06:55:00,32.4,-99.9,-100.00,WSW,240,11.0,-999.0,-999,0.00,,,-99.99,Home Grown,2013-03-19 06:55:00,
2013-03-19 07:00:00,32.2,-99.9,-100.00,WSW,240,10.0,-999.0,-999,0.00,,,-99.99,Home Grown,2013-03-19 07:00:00,
2013-03-19 07:05:00,32.2,-99.9,-100.00,WSW,240,10.0,-999.0,-999,0.00,,,-99.99,Home Grown,2013-03-19 07:05:00,
2013-03-19 07:10:00,32.2,-99.9,-100.00,WSW,240,10.0,-999.0,-999,0.00,,,-99.99,Home Grown,2013-03-19 07:10:00,
2013-03-19 07:15:00,32.2,-99.9,-100.00,WSW,240,10.0,-999.0,-999,0.00,,,-99.99,Home Grown,2013-03-19 07:15:00,
2013-03-19 07:20:00,32.2,-99.9,-100.00,WSW,240,10.0,-999.0,-999,0.00,,,-99.99,Home Grown,2013-03-19 07:20:00,
2013-03-19 07:25:00,32.2,-99.9,-100.00,WSW,240,7.0,-999.0,-999,0.00,,,-99.99,Home Grown,2013-03-19 07:25:00,
2013-03-19 07:30:00,32.2,-99.9,-100.00,WSW,240,7.0,-999.0,-999,0.00,,,-99.99,Home Grown,2013-03-19 07:30:00,
2013-03-19 07:35:00,32.2,-99.9,-100.00,WSW,240,8.0,-999.0,-999,0.00,,,-99.99,Home Grown,2013-03-19 07:35:00,
2013-03-19 07:40:00,32.2,-99.9,-100.00,WSW,240,9.0,-999.0,-999,0.00,,,-99.99,Home Grown,2013-03-19 07:40:00,
2013-03-19 07:45:00,32.2,-99.9,-100.00,WSW,240,6.0,-999.0,-999,0.00,,,-99.99,Home Grown,2013-03-19 07:45:00,
2013-03-19 07:50:00,32.2,-99.9,-100.00,WSW,240,6.0,-999.0,-999,0.00,,,-99.99,Home Grown,2013-03-19 07:50:00,
2013-03-19 07:55:00,32.2,-99.9,-100.00,WSW,240,8.0,-999.0,-999,0.00,,,-99.99,Home Grown,2013-03-19 07:55:00,
2013-03-19 08:00:00,32.2,-99.9,-100.00,WSW,240,8.0,-999.0,-999,0.00,,,-99.99,Home Grown,2013-03-19 08:00:00,
2013-03-19 08:05:00,32.2,-99.9,-100.00,WSW,240,8.0,-999.0,-999,0.00,,,-99.99,Home Grown,2013-03-19 08:05:00,
2013-03-19 08:10:00,32.2,-99.9,-100.00,WSW,240,8.0,-999.0,-999,0.00,,,-99.99,Home Grown,2013-03-19 08:10:00,
2013-03-19 08:15:00,32.2,-99.9,-100.00,WSW,240,8.0,-999.0,-999,0.00,,,-99.99,Home Grown,2013-03-19 08:15:00,
2013-03-19 08:20:00,32.0,-99.9,-100.00,WSW,240,9.0,-999.0,-999,0.00,,,-99.99,Home Grown,2013-03-19 08:20:00,
2013-03-19 08:25:00,32.0,-99.9,-100.00,WSW,240,9.0,-999.0,-999,0.00,,,-99.99,Home Grown,2013-03-19 08:25:00,
2013-03-19 08:30:00,32.0,-99.9,-100.00,WSW,240,8.0,-999.0,-999,0.00,,,-99.99,Home Grown,2013-03-19 08:30:00,
2013-03-19 08:35:00,32.0,-99.9,-100.00,WSW,240,8.0,-999.0,-999,0.00,,,-99.99,Home Grown,2013-03-19 08:35:00,
2013-03-19 08:40:00,32.0,-99.9,-100.00,WSW,240,6.0,-999.0,-999,0.00,,,-99.99,Home Grown,2013-03-19 08:40:00,
2013-03-19 08:45:00,31.8,-99.9,-100.00,WSW,240,6.0,-999.0,-999,0.00,,,-99.99,Home Grown,2013-03-19 08:45:00,
2013-03-19 08:50:00,32.0,-99.9,-100.00,WSW,240,7.0,-999.0,-999,0.00,,,-99.99,Home Grown,2013-03-19 08:50:00,
2013-03-19 08:55:00,32.0,-99.9,-100.00,WSW,240,8.0,-999.0,-999,0.00,,,-99.99,Home Grown,2013-03-19 08:55:00,
2013-03-19 09:00:00,32.0,-99.9,-100.00,WSW,240,7.0,-999.0,-999,0.00,,,-99.99,Home Grown,2013-03-19 09:00:00,
2013-03-19 09:10:00,31.8,-99.9,-100.00,WSW,240,6.0,-999.0,-999,0.00,,,-99.99,Home Grown,2013-03-19 09:10:00,
2013-03-19 09:15:00,32.0,-99.9,-100.00,WSW,240,7.0,-999.0,-999,0.00,,,-99.99,Home Grown,2013-03-19 09:15:00,
2013-03-19 09:20:00,32.0,-99.9,-100.00,WSW,240,8.0,-999.0,-999,0.00,,,-99.99,Home Grown,2013-03-19 09:20:00,
2013-03-19 09:25:00,32.2,-99.9,-100.00,WSW,240,6.0,-999.0,-999,0.00,,,-99.99,Home Grown,2013-03-19 09:25:00,
2013-03-19 09:30:00,32.2,-99.9,-100.00,WSW,240,4.0,-999.0,-999,0.00,,,-99.99,Home Grown,2013-03-19 09:30:00,
2013-03-19 09:35:00,32.2,-99.9,-100.00,WSW,240,4.0,-999.0,-999,0.00,,,-99.99,Home Grown,2013-03-19 09:35:00,
2013-03-19 09:40:00,32.2,-99.9,-100.00,WSW,240,5.0,-999.0,-999,0.00,,,-99.99,Home Grown,2013-03-19 09:40:00,
2013-03-19 09:45:00,32.0,-99.9,-100.00,WSW,240,6.0,-999.0,-999,0.00,,,-99.99,Home Grown,2013-03-19 09:45:00,
2013-03-19 09:50:00,32.2,-99.9,-100.00,WSW,240,6.0,-999.0,-999,0.00,,,-99.99,Home Grown,2013-03-19 09:50:00,
2013-03-19 09:55:00,32.2,-99.9,-100.00,WSW,240,8.0,-999.0,-999,0.00,,,-99.99,Home Grown,2013-03-19 09:55:00,
2013-03-19 10:00:00,32.4,-99.9,-100.00,WSW,240,7.0,-999.0,-999,0.00,,,-99.99,Home Grown,2013-03-19 10:00:00,
2013-03-19 10:05:00,32.2,-99.9,-100.00,WSW,240,8.0,-999.0,-999,0.00,,,-99.99,Home Grown,2013-03-19 10:05:00,
2013-03-19 10:10:00,32.2,-99.9,-100.00,WSW,240,6.0,-999.0,-999,0.00,,,-99.99,Home Grown,2013-03-19 10:10:00,
2013-03-19 10:15:00,32.4,-99.9,-100.00,WSW,240,8.0,-999.0,-999,0.00,,,-99.99,Home Grown,2013-03-19 10:15:00,
2013-03-19 10:20:00,32.5,-99.9,-100.00,WSW,240,10.0,-999.0,-999,0.00,,,-99.99,Home Grown,2013-03-19 10:20:00,
2013-03-19 10:25:00,32.5,-99.9,-100.00,WSW,240,9.0,-999.0,-999,0.00,,,-99.99,Home Grown,2013-03-19 10:25:00,
2013-03-19 10:30:00,32.5,-99.9,-100.00,WSW,240,8.0,-999.0,-999,0.00,,,-99.99,Home Grown,2013-03-19 10:30:00,
2013-03-19 10:40:00,32.5,-99.9,-100.00,WSW,240,7.0,-999.0,-999,0.00,,,-99.99,Home Grown,2013-03-19 10:40:00,
2013-03-19 10:45:00,32.7,-99.9,-100.00,WSW,240,7.0,-999.0,-999,0.00,,,-99.99,Home Grown,2013-03-19 10:45:00,
2013-03-19 10:55:00,32.5,-99.9,-100.00,WSW,240,6.0,-999.0,-999,0.00,,,-99.99,Home Grown,2013-03-19 10:55:00,
2013-03-19 11:00:00,32.5,-99.9,-100.00,WSW,240,6.0,-999.0,-999,0.00,,,-99.99,Home Grown,2013-03-19 11:00:00,
2013-03-19 11:05:00,32.5,-99.9,-100.00,WSW,240,6.0,-999.0,-999,0.00,,,-99.99,Home Grown,2013-03-19 11:05:00,
2013-03-19 11:10:00,32.5,-99.9,-100.00,WSW,240,5.0,-999.0,-999,0.00,,,-99.99,Home Grown,2013-03-19 11:10:00,
2013-03-19 11:15:00,32.7,-99.9,-100.00,WSW,240,5.0,-999.0,-999,0.00,,,-99.99,Home Grown,2013-03-19 11:15:00,
2013-03-19 11:20:00,32.9,-99.9,-100.00,WSW,240,5.0,-999.0,-999,0.00,,,-99.99,Home Grown,2013-03-19 11:20:00,
2013-03-19 11:25:00,33.4,-99.9,-100.00,WSW,240,6.0,-999.0,-999,0.00,,,-99.99,Home Grown,2013-03-19 11:25:00,
2013-03-19 11:30:00,33.6,-99.9,-100.00,WSW,240,9.0,-999.0,-999,0.00,,,-99.99,Home Grown,2013-03-19 11:30:00,
2013-03-19 11:35:00,33.6,-99.9,-100.00,WSW,240,10.0,-999.0,-999,0.00,,,-99.99,Home Grown,2013-03-19 11:35:00,
2013-03-19 11:40:00,34.0,-99.9,-100.00,WSW,240,10.0,-999.0,-999,0.00,,,-99.99,Home Grown,2013-03-19 11:40:00,
2013-03-19 11:45:00,34.0,-99.9,-100.00,WSW,240,10.0,-999.0,-999,0.00,,,-99.99,Home Grown,2013-03-19 11:45:00,
2013-03-19 11:50:00,34.0,-99.9,-100.00,WSW,240,11.0,-999.0,-999,0.00,,,-99.99,Home Grown,2013-03-19 11:50:00,
2013-03-19 11:55:00,34.0,-99.9,-100.00,WSW,240,11.0,-999.0,-999,0.00,,,-99.99,Home Grown,2013-03-19 11:55:00,
2013-03-19 12:00:00,34.3,-99.9,-100.00,WSW,240,10.0,-999.0,-999,0.00,,,-99.99,Home Grown,2013-03-19 12:00:00,
2013-03-19 12:05:00,33.8,-99.9,-100.00,WSW,240,13.0,-999.0,-999,0.00,,,-99.99,Home Grown,2013-03-19 12:05:00,
2013-03-19 12:10:00,33.4,-99.9,-100.00,WSW,240,12.0,-999.0,-999,0.00,,,-99.99,Home Grown,2013-03-19 12:10:00,
2013-03-19 12:15:00,33.1,-99.9,-100.00,WSW,240,9.0,-999.0,-999,0.00,,,-99.99,Home Grown,2013-03-19 12:15:00,
2013-03-19 12:20:00,33.3,-99.9,-100.00,WSW,240,8.0,-999.0,-999,0.00,,,-99.99,Home Grown,2013-03-19 12:20:00,
2013-03-19 12:25:00,33.1,-99.9,-100.00,WSW,240,9.0,-999.0,-999,0.00,,,-99.99,Home Grown,2013-03-19 12:25:00,
2013-03-19 12:30:00,32.7,-99.9,-100.00,WSW,240,7.0,-999.0,-999,0.00,,,-99.99,Home Grown,2013-03-19 12:30:00,
2013-03-19 12:35:00,33.1,-99.9,-100.00,WSW,240,6.0,-999.0,-999,0.00,,,-99.99,Home Grown,2013-03-19 12:35:00,
2013-03-19 12:40:00,32.9,-99.9,-100.00,WSW,240,5.0,-999.0,-999,0.00,,,-99.99,Home Grown,2013-03-19 12:40:00,
2013-03-19 12:45:00,33.3,-99.9,-100.00,WSW,240,5.0,-999.0,-999,0.00,,,-99.99,Home Grown,2013-03-19 12:45:00,
2013-03-19 12:50:00,33.6,-99.9,-100.00,WSW,240,7.0,-999.0,-999,0.00,,,-99.99,Home Grown,2013-03-19 12:50:00,
2013-03-19 12:55:00,34.0,-99.9,-100.00,WSW,240,5.0,-999.0,-999,0.00,,,-99.99,Home Grown,2013-03-19 12:55:00,
2013-03-19 13:00:00,34.2,-99.9,-100.00,WSW,240,5.0,-999.0,-999,0.00,,,-99.99,Home Grown,2013-03-19 13:00:00,
2013-03-19 13:05:00,34.5,-99.9,-100.00,WSW,240,6.0,-999.0,-999,0.00,,,-99.99,Home Grown,2013-03-19 13:05:00,
2013-03-19 13:10:00,34.5,-99.9,-100.00,WSW,240,6.0,-999.0,-999,0.00,,,-99.99,Home Grown,2013-03-19 13:10:00,
2013-03-19 13:15:00,34.9,-99.9,-100.00,WSW,240,9.0,-999.0,-999,0.00,,,-99.99,Home Grown,2013-03-19 13:15:00,
2013-03-19 13:20:00,35.2,-99.9,-100.00,WSW,240,9.0,-999.0,-999,0.00,,,-99.99,Home Grown,2013-03-19 13:20:00,
2013-03-19 13:25:00,35.1,-99.9,-100.00,WSW,240,9.0,-999.0,-999,0.00,,,-99.99,Home Grown,2013-03-19 13:25:00,
2013-03-19 13:30:00,35.2,-99.9,-100.00,WSW,240,10.0,-999.0,-999,0.00,,,-99.99,Home Grown,2013-03-19 13:30:00,
2013-03-19 13:35:00,35.4,-99.9,-100.00,WSW,240,10.0,-999.0,-999,0.00,,,-99.99,Home Grown,2013-03-19 13:35:00,
2013-03-19 13:40:00,35.6,-99.9,-100.00,WSW,240,10.0,-999.0,-999,0.00,,,-99.99,Home Grown,2013-03-19 13:40:00,
2013-03-19 13:45:00,35.8,-99.9,-100.00,WSW,240,11.0,-999.0,-999,0.00,,,-99.99,Home Grown,2013-03-19 13:45:00,
2013-03-19 13:50:00,35.8,-99.9,-100.00,WSW,240,12.0,-999.0,-999,0.00,,,-99.99,Home Grown,2013-03-19 13:50:00,
2013-03-19 13:55:00,36.0,-99.9,-100.00,WSW,240,11.0,-999.0,-999,0.00,,,-99.99,Home Grown,2013-03-19 13:55:00,
2013-03-19 14:00:00,36.1,-99.9,-100.00,WSW,240,9.0,-999.0,-999,0.00,,,-99.99,Home Grown,2013-03-19 14:00:00,
2013-03-19 14:05:00,36.1,-99.9,-100.00,WSW,240,10.0,-999.0,-999,0.00,,,-99.99,Home Grown,2013-03-19 14:05:00,
2013-03-19 14:10:00,36.1,-99.9,-100.00,WSW,240,8.0,-999.0,-999,0.00,,,-99.99,Home Grown,2013-03-19 14:10:00,
2013-03-19 14:15:00,36.0,-99.9,-100.00,WSW,240,8.0,-999.0,-999,0.00,,,-99.99,Home Grown,2013-03-19 14:15:00,
2013-03-19 14:20:00,36.0,-99.9,-100.00,WSW,240,12.0,-999.0,-999,0.00,,,-99.99,Home Grown,2013-03-19 14:20:00,
2013-03-19 14:25:00,36.0,-99.9,-100.00,WSW,240,10.0,-999.0,-999,0.00,,,-99.99,Home Grown,2013-03-19 14:25:00,
2013-03-19 14:30:00,36.3,-99.9,-100.00,WSW,240,7.0,-999.0,-999,0.00,,,-99.99,Home Grown,2013-03-19 14:30:00,
2013-03-19 14:35:00,36.3,-99.9,-100.00,WSW,240,7.0,-999.0,-999,0.00,,,-99.99,Home Grown,2013-03-19 14:35:00,
2013-03-19 14:40:00,36.3,-99.9,-100.00,WSW,240,7.0,-999.0,-999,0.00,,,-99.99,Home Grown,2013-03-19 14:40:00,
2013-03-19 14:45:00,36.5,-99.9,-100.00,WSW,240,8.0,-999.0,-999,0.00,,,-99.99,Home Grown,2013-03-19 14:45:00,
2013-03-19 14:50:00,36.5,-99.9,-100.00,WSW,240,9.0,-999.0,-999,0.00,,,-99.99,Home Grown,2013-03-19 14:50:00,
2013-03-19 14:55:00,36.5,-99.9,-100.00,WSW,240,9.0,-999.0,-999,0.00,,,-99.99,Home Grown,2013-03-19 14:55:00,
2013-03-19 15:00:00,36.5,-99.9,-100.00,WSW,240,8.0,-999.0,-999,0.00,,,-99.99,Home Grown,2013-03-19 15:00:00,
2013-03-19 15:05:00,36.7,-99.9,-100.00,WSW,240,8.0,-999.0,-999,0.00,,,-99.99,Home Grown,2013-03-19 15:05:00,
2013-03-19 15:10:00,36.9,-99.9,-100.00,WSW,240,7.0,-999.0,-999,0.00,,,-99.99,Home Grown,2013-03-19 15:10:00,
2013-03-19 15:15:00,36.9,-99.9,-100.00,WSW,240,8.0,-999.0,-999,0.00,,,-99.99,Home Grown,2013-03-19 15:15:00,
2013-03-19 15:20:00,37.0,-99.9,-100.00,WSW,240,6.0,-999.0,-999,0.00,,,-99.99,Home Grown,2013-03-19 15:20:00,
2013-03-19 15:25:00,36.9,-99.9,-100.00,WSW,240,7.0,-999.0,-999,0.00,,,-99.99,Home Grown,2013-03-19 15:25:00,
2013-03-19 15:30:00,36.9,-99.9,-100.00,WSW,240,6.0,-999.0,-999,0.00,,,-99.99,Home Grown,2013-03-19 15:30:00,
2013-03-19 15:35:00,36.9,-99.9,-100.00,WSW,240,6.0,-999.0,-999,0.00,,,-99.99,Home Grown,2013-03-19 15:35:00,
2013-03-19 15:40:00,36.9,-99.9,-100.00,WSW,240,6.0,-999.0,-999,0.00,,,-99.99,Home Grown,2013-03-19 15:40:00,
2013-03-19 15:45:00,36.9,-99.9,-100.00,WSW,240,7.0,-999.0,-999,0.00,,,-99.99,Home Grown,2013-03-19 15:45:00,
2013-03-19 15:50:00,37.0,-99.9,-100.00,WSW,240,6.0,-999.0,-999,0.00,,,-99.99,Home Grown,2013-03-19 15:50:00,
2013-03-19 15:55:00,37.0,-99.9,-100.00,WSW,240,7.0,-999.0,-999,0.00,,,-99.99,Home Grown,2013-03-19 15:55:00,
2013-03-19 16:00:00,37.0,-99.9,-100.00,WSW,240,8.0,-999.0,-999,0.00,,,-99.99,Home Grown,2013-03-19 16:00:00,
2013-03-19 16:05:00,37.0,-99.9,-100.00,WSW,240,6.0,-999.0,-999,0.00,,,-99.99,Home Grown,2013-03-19 16:05:00,
2013-03-19 16:10:00,37.0,-99.9,-100.00,WSW,240,8.0,-999.0,-999,0.00,,,-99.99,Home Grown,2013-03-19 16:10:00,
2013-03-19 16:15:00,37.0,-99.9,-100.00,WSW,240,10.0,-999.0,-999,0.00,,,-99.99,Home Grown,2013-03-19 16:15:00,
2013-03-19 16:20:00,37.0,-99.9,-100.00,WSW,240,9.0,-999.0,-999,0.00,,,-99.99,Home Grown,2013-03-19 16:20:00,
2013-03-19 16:25:00,37.0,-99.9,-100.00,WSW,240,8.0,-999.0,-999,0.00,,,-99.99,Home Grown,2013-03-19 16:25:00,
2013-03-19 16:30:00,36.9,-99.9,-100.00,WSW,240,7.0,-999.0,-999,0.00,,,-99.99,Home Grown,2013-03-19 16:30:00,
2013-03-19 16:35:00,36.9,-99.9,-100.00,WSW,240,7.0,-999.0,-999,0.00,,,-99.99,Home Grown,2013-03-19 16:35:00,
2013-03-19 16:40:00,37.0,-99.9,-100.00,WSW,240,7.0,-999.0,-999,0.00,,,-99.99,Home Grown,2013-03-19 16:40:00,
2013-03-19 16:45:00,37.0,-99.9,-100.00,WSW,240,6.0,-999.0,-999,0.00,,,-99.99,Home Grown,2013-03-19 16:45:00,
2013-03-19 16:50:00,37.0,-99.9,-100.00,WSW,240,5.0,-999.0,-999,0.00,,,-99.99,Home Grown,2013-03-19 16:50:00,
2013-03-19 16:55:00,37.0,-99.9,-100.00,WSW,240,7.0,-999.0,-999,0.00,,,-99.99,Home Grown,2013-03-19 16:55:00,
2013-03-19 17:00:00,37.0,-99.9,-100.00,WSW,240,7.0,-999.0,-999,0.00,,,-99.99,Home Grown,2013-03-19 17:00:00,
2013-03-19 17:05:00,37.0,-99.9,-100.00,WSW,240,7.0,-999.0,-999,0.00,,,-99.99,Home Grown,2013-03-19 17:05:00,
2013-03-19 17:10:00,37.0,-99.9,-100.00,WSW,240,7.0,-999.0,-999,0.00,,,-99.99,Home Grown,2013-03-19 17:10:00,
2013-03-19 17:15:00,37.0,-99.9,-100.00,WSW,240,7.0,-999.0,-999,0.00,,,-99.99,Home Grown,2013-03-19 17:15:00,
2013-03-19 17:20:00,37.0,-99.9,-100.00,WSW,240,5.0,-999.0,-999,0.00,,,-99.99,Home Grown,2013-03-19 17:20:00,
2013-03-19 17:25:00,37.2,-99.9,-100.00,WSW,240,6.0,-999.0,-999,0.00,,,-99.99,Home Grown,2013-03-19 17:25:00,
2013-03-19 17:30:00,37.0,-99.9,-100.00,WSW,240,7.0,-999.0,-999,0.00,,,-99.99,Home Grown,2013-03-19 17:30:00,
2013-03-19 17:35:00,37.0,-99.9,-100.00,WSW,240,7.0,-999.0,-999,0.00,,,-99.99,Home Grown,2013-03-19 17:35:00,
2013-03-19 17:40:00,37.0,-99.9,-100.00,WSW,240,6.0,-999.0,-999,0.00,,,-99.99,Home Grown,2013-03-19 17:40:00,
2013-03-19 17:45:00,37.0,-99.9,-100.00,WSW,240,7.0,-999.0,-999,0.00,,,-99.99,Home Grown,2013-03-19 17:45:00,
2013-03-19 17:50:00,36.7,-99.9,-100.00,WSW,240,7.0,-999.0,-999,0.00,,,-99.99,Home Grown,2013-03-19 17:50:00,
2013-03-19 18:00:00,36.7,-99.9,-100.00,WSW,240,7.0,-999.0,-999,0.00,,,-99.99,Home Grown,2013-03-19 18:00:00,
2013-03-19 18:05:00,36.7,-99.9,-100.00,WSW,240,6.0,-999.0,-999,0.00,,,-99.99,Home Grown,2013-03-19 18:05:00,
2013-03-19 18:10:00,36.5,-99.9,-100.00,WSW,240,7.0,-999.0,-999,0.00,,,-99.99,Home Grown,2013-03-19 18:10:00,
2013-03-19 18:15:00,36.5,-99.9,-100.00,WSW,240,7.0,-999.0,-999,0.00,,,-99.99,Home Grown,2013-03-19 18:15:00,
2013-03-19 18:20:00,36.3,-99.9,-100.00,WSW,240,7.0,-999.0,-999,0.00,,,-99.99,Home Grown,2013-03-19 18:20:00,
2013-03-19 18:25:00,36.3,-99.9,-100.00,WSW,240,7.0,-999.0,-999,0.00,,,-99.99,Home Grown,2013-03-19 18:25:00,
2013-03-19 18:30:00,36.3,-99.9,-100.00,WSW,240,7.0,-999.0,-999,0.00,,,-99.99,Home Grown,2013-03-19 18:30:00,
2013-03-19 18:35:00,36.1,-99.9,-100.00,WSW,240,7.0,-999.0,-999,0.00,,,-99.99,Home Grown,2013-03-19 18:35:00,
2013-03-19 18:40:00,36.1,-99.9,-100.00,WSW,240,6.0,-999.0,-999,0.00,,,-99.99,Home Grown,2013-03-19 18:40:00,
2013-03-19 18:45:00,36.1,-99.9,-100.00,WSW,240,6.0,-999.0,-999,0.00,,,-99.99,Home Grown,2013-03-19 18:45:00,
2013-03-19 18:50:00,36.0,-99.9,-100.00,WSW,240,6.0,-999.0,-999,0.00,,,-99.99,Home Grown,2013-03-19 18:50:00,
2013-03-19 18:55:00,36.0,-99.9,-100.00,WSW,240,5.0,-999.0,-999,0.00,,,-99.99,Home Grown,2013-03-19 18:55:00,
2013-03-19 19:00:00,36.0,-99.9,-100.00,WSW,240,5.0,-999.0,-999,0.00,,,-99.99,Home Grown,2013-03-19 19:00:00,
2013-03-19 19:05:00,36.0,-99.9,-100.00,WSW,240,3.0,-999.0,-999,0.00,,,-99.99,Home Grown,2013-03-19 19:05:00,
2013-03-19 19:10:00,36.0,-99.9,-100.00,WSW,240,4.0,-999.0,-999,0.00,,,-99.99,Home Grown,2013-03-19 19:10:00,
2013-03-19 19:15:00,36.0,-99.9,-100.00,WSW,240,5.0,-999.0,-999,0.00,,,-99.99,Home Grown,2013-03-19 19:15:00,
2013-03-19 19:25:00,36.0,-99.9,-100.00,WSW,240,4.0,-999.0,-999,0.00,,,-99.99,Home Grown,2013-03-19 19:25:00,
2013-03-19 19:30:00,35.8,-99.9,-100.00,WSW,240,5.0,-999.0,-999,0.00,,,-99.99,Home Grown,2013-03-19 19:30:00,
2013-03-19 19:35:00,35.8,-99.9,-100.00,WSW,240,4.0,-999.0,-999,0.00,,,-99.99,Home Grown,2013-03-19 19:35:00,
2013-03-19 19:40:00,35.4,-99.9,-100.00,WSW,240,4.0,-999.0,-999,0.00,,,-99.99,Home Grown,2013-03-19 19:40:00,
2013-03-19 19:45:00,35.4,-99.9,-100.00,WSW,240,4.0,-999.0,-999,0.00,,,-99.99,Home Grown,2013-03-19 19:45:00,
2013-03-19 19:50:00,35.2,-99.9,-100.00,WSW,240,3.0,-999.0,-999,0.00,,,-99.99,Home Grown,2013-03-19 19:50:00,
2013-03-19 19:55:00,35.2,-99.9,-100.00,WSW,240,2.0,-999.0,-999,0.00,,,-99.99,Home Grown,2013-03-19 19:55:00,
2013-03-19 20:00:00,35.2,-99.9,-100.00,WSW,240,3.0,-999.0,-999,0.00,,,-99.99,Home Grown,2013-03-19 20:00:00,
2013-03-19 20:05:00,35.1,-99.9,-100.00,WSW,240,3.0,-999.0,-999,0.00,,,-99.99,Home Grown,2013-03-19 20:05:00,
2013-03-19 20:15:00,35.1,-99.9,-100.00,WSW,240,2.0,-999.0,-999,0.00,,,-99.99,Home Grown,2013-03-19 20:15:00,
2013-03-19 20:20:00,35.1,-99.9,-100.00,WSW,240,2.0,-999.0,-999,0.00,,,-99.99,Home Grown,2013-03-19 20:20:00,
2013-03-19 20:25:00,35.2,-99.9,-100.00,WSW,240,2.0,-999.0,-999,0.00,,,-99.99,Home Grown,2013-03-19 20:25:00,
2013-03-19 20:30:00,35.2,-99.9,-100.00,WSW,240,2.0,-999.0,-999,0.00,,,-99.99,Home Grown,2013-03-19 20:30:00,
2013-03-19 20:35:00,35.2,-99.9,-100.00,WSW,240,2.0,-999.0,-999,0.00,,,-99.99,Home Grown,2013-03-19 20:35:00,
2013-03-19 20:40:00,35.2,-99.9,-100.00,WSW,240,3.0,-999.0,-999,0.00,,,-99.99,Home Grown,2013-03-19 20:40:00,
2013-03-19 20:45:00,35.2,-99.9,-100.00,WSW,240,5.0,-999.0,-999,0.00,,,-99.99,Home Grown,2013-03-19 20:45:00,
2013-03-19 20:50:00,35.2,-99.9,-100.00,WSW,240,5.0,-999.0,-999,0.00,,,-99.99,Home Grown,2013-03-19 20:50:00,
2013-03-19 20:55:00,35.2,-99.9,-100.00,WSW,240,5.0,-999.0,-999,0.00,,,-99.99,Home Grown,2013-03-19 20:55:00,
2013-03-19 21:00:00,34.9,-99.9,-100.00,WSW,240,5.0,-999.0,-999,0.00,,,-99.99,Home Grown,2013-03-19 21:00:00,
2013-03-19 21:05:00,34.9,-99.9,-100.00,WSW,240,5.0,-999.0,-999,0.00,,,-99.99,Home Grown,2013-03-19 21:05:00,
2013-03-19 21:10:00,34.7,-99.9,-100.00,WSW,240,4.0,-999.0,-999,0.00,,,-99.99,Home Grown,2013-03-19 21:10:00,
2013-03-19 21:15:00,34.7,-99.9,-100.00,WSW,240,4.0,-999.0,-999,0.00,,,-99.99,Home Grown,2013-03-19 21:15:00,
2013-03-19 21:20:00,34.7,-99.9,-100.00,WSW,240,4.0,-999.0,-999,0.00,,,-99.99,Home Grown,2013-03-19 21:20:00,
2013-03-19 21:25:00,34.5,-99.9,-100.00,WSW,240,5.0,-999.0,-999,0.00,,,-99.99,Home Grown,2013-03-19 21:25:00,
2013-03-19 21:30:00,34.5,-99.9,-100.00,WSW,240,4.0,-999.0,-999,0.00,,,-99.99,Home Grown,2013-03-19 21:30:00,
2013-03-19 21:35:00,34.5,-99.9,-100.00,WSW,240,5.0,-999.0,-999,0.00,,,-99.99,Home Grown,2013-03-19 21:35:00,
2013-03-19 21:45:00,34.3,-99.9,-100.00,WSW,240,3.0,-999.0,-999,0.00,,,-99.99,Home Grown,2013-03-19 21:45:00,
2013-03-19 21:50:00,34.2,-99.9,-100.00,WSW,240,4.0,-999.0,-999,0.00,,,-99.99,Home Grown,2013-03-19 21:50:00,
2013-03-19 21:55:00,34.2,-99.9,-100.00,WSW,240,3.0,-999.0,-999,0.00,,,-99.99,Home Grown,2013-03-19 21:55:00,
2013-03-19 22:00:00,34.2,-99.9,-100.00,WSW,240,3.0,-999.0,-999,0.00,,,-99.99,Home Grown,2013-03-19 22:00:00,
2013-03-19 22:05:00,34.0,-99.9,-100.00,WSW,240,2.0,-999.0,-999,0.00,,,-99.99,Home Grown,2013-03-19 22:05:00,
2013-03-19 22:10:00,34.2,-99.9,-100.00,WSW,240,3.0,-999.0,-999,0.00,,,-99.99,Home Grown,2013-03-19 22:10:00,
2013-03-19 22:15:00,34.0,-99.9,-100.00,WSW,240,4.0,-999.0,-999,0.00,,,-99.99,Home Grown,2013-03-19 22:15:00,
2013-03-19 22:20:00,34.0,-99.9,-100.00,WSW,240,3.0,-999.0,-999,0.00,,,-99.99,Home Grown,2013-03-19 22:20:00,
2013-03-19 22:25:00,34.0,-99.9,-100.00,WSW,240,4.0,-999.0,-999,0.00,,,-99.99,Home Grown,2013-03-19 22:25:00,
2013-03-19 22:30:00,34.0,-99.9,-100.00,WSW,240,4.0,-999.0,-999,0.00,,,-99.99,Home Grown,2013-03-19 22:30:00,
2013-03-19 22:40:00,33.8,-99.9,-100.00,WSW,240,4.0,-999.0,-999,0.00,,,-99.99,Home Grown,2013-03-19 22:40:00,
2013-03-19 22:50:00,33.8,-99.9,-100.00,WSW,240,3.0,-999.0,-999,0.00,,,-99.99,Home Grown,2013-03-19 22:50:00,
2013-03-19 22:55:00,33.6,-99.9,-100.00,WSW,240,4.0,-999.0,-999,0.00,,,-99.99,Home Grown,2013-03-19 22:55:00,
2013-03-19 23:00:00,33.6,-99.9,-100.00,WSW,240,4.0,-999.0,-999,0.00,,,-99.99,Home Grown,2013-03-19 23:00:00,
2013-03-19 23:05:00,33.6,-99.9,-100.00,WSW,240,3.0,-999.0,-999,0.00,,,-99.99,Home Grown,2013-03-19 23:05:00,
2013-03-19 23:10:00,33.6,-99.9,-100.00,WSW,240,3.0,-999.0,-999,0.00,,,-99.99,Home Grown,2013-03-19 23:10:00,
2013-03-19 23:15:00,33.6,-99.9,-100.00,WSW,240,4.0,-999.0,-999,0.00,,,-99.99,Home Grown,2013-03-19 23:15:00,
2013-03-19 23:20:00,33.6,-99.9,-100.00,WSW,240,4.0,-999.0,-999,0.00,,,-99.99,Home Grown,2013-03-19 23:20:00,
2013-03-19 23:25:00,33.6,-99.9,-100.00,WSW,240,3.0,-999.0,-999,0.00,,,-99.99,Home Grown,2013-03-19 23:25:00,
2013-03-19 23:30:00,33.6,-99.9,-100.00,WSW,240,4.0,-999.0,-999,0.00,,,-99.99,Home Grown,2013-03-19 23:30:00,
2013-03-19 23:35:00,33.6,-99.9,-100.00,WSW,240,3.0,-999.0,-999,0.00,,,-99.99,Home Grown,2013-03-19 23:35:00,
2013-03-19 23:40:00,33.6,-99.9,-100.00,WSW,240,4.0,-999.0,-999,0.00,,,-99.99,Home Grown,2013-03-19 23:40:00,
2013-03-19 23:45:00,33.4,-99.9,-100.00,WSW,240,5.0,-999.0,-999,0.00,,,-99.99,Home Grown,2013-03-19 23:45:00,
2013-03-19 23:50:00,33.4,-99.9,-100.00,WSW,240,6.0,-999.0,-999,0.00,,,-99.99,Home Grown,2013-03-19 23:50:00,
2013-03-19 23:55:00,33.6,-99.9,-100.00,WSW,240,7.0,-999.0,-999,0.00,,,-99.99,Home Grown,2013-03-19 23:55:00,